Regional Weather Roundup
Issued by NWS Kansas City/Pleasant Hill, MO

Home | Current Version | Previous Version | Graphics & Text | Print | Product List | Glossary Off
Versions: 1 2 3 4 5 6 7 8 9 10 11 12 13 14 15 16 17 18 19 20 21 22 23 24 25 26 27 28 29 30 31 32 33 34 35 36 37 38 39 40 41 42 43 44 45 46 47 48 49 50

000
ASUS43 KEAX 271011
RWREAX

WEATHER ROUNDUP FOR EASTERN KANSAS AND NORTHWEST MISSOURI
NATIONAL WEATHER SERVICE KANSAS CITY/PLEASANT HILL MO
500 AM CDT WED MAY 27 2015

KSZ040-057-103>105-MOZ028-029-037-043-271100-
...KANSAS CITY METROPOLITAN AREA...

CITY           SKY/WX    TMP DP  RH WIND       PRES   REMARKS
K.C. INTL      PTCLDY    59  54  83 W6        30.01R
K.C. DOWNTOWN  MOCLDY    63  56  78 SW7       30.01R
LEES SUMMIT    PTCLDY    62  57  83 W5        30.02R
OLATHE - IXD   PTCLDY    61  58  90 W3        30.03R
OLATHE - OJC   MOCLDY    61  58  90 W3        30.02R
LAWRENCE       CLOUDY    59  57  93 CALM      30.02R

$$

MOZ001>008-011>017-020>025-030>033-038>040-044>046-053-054-271100-
...NORTHERN AND CENTRAL MISSOURI...

CITY           SKY/WX    TMP DP  RH WIND       PRES   REMARKS
ST. JOSEPH     CLEAR     59  53  80 CALM      30.00R
MOSBY          PTSUNNY   59  57  94 CALM      30.01R
WARRENSBURG    CLEAR     63  59  88 S3        30.01R
WHITEMAN AFB   PTCLDY    64  61  92 W6        30.01R
CLINTON        PTCLDY    64  64 100 SW3       30.03R
SEDALIA        MOCLDY    66  62  87 W8        30.01R
WARSAW         NOT AVBL
CHILLICOTHE      N/A     59  58  96 CALM      29.99R
KIRKSVILLE     PTCLDY    61  59  93 W3        29.98R

$$

MOZ041-047>049-056>058-063>065-088>090-097-271100-
...EASTERN AND SOUTHERN MISSOURI...

CITY           SKY/WX    TMP DP  RH WIND       PRES   REMARKS
ST. LOUIS INTL MOCLDY    71  62  73 SW12      30.00R
SPIRIT OF STL  CLOUDY   N/A N/A N/A SW6       29.99R
COLUMBIA       MOCLDY    65  62  90 SW7       30.00R
JEFFERSON CITY CLOUDY    67  61  81 SW5       30.00R
ROLLA          RAIN      61  59  93 SW13      30.00F
SPRINGFIELD    CLOUDY    65  62  90 NE8       30.04R
BRANSON        CLOUDY    66  64  94 CALM      30.05R
JOPLIN         MOCLDY    66  64  93 SW5       30.03R
WEST PLAINS    CLOUDY    66  63  90 SE6       30.04R

$$

IAZ060-094-KSZ022-034>040-054-083-096-NEZ052-066-093-271100-
...KANSAS...SOUTHEAST NEBRASKA AND IOWA...

CITY           SKY/WX    TMP DP  RH WIND       PRES   REMARKS
TOPEKA         MOCLDY    60  57  89 W3        30.02R
MANHATTAN      CLEAR     53  52  96 CALM      30.03R
EMPORIA        PTCLDY    59  56  89 NW5       30.03R
CHANUTE        CLEAR     61  60  97 CALM      30.02R
WICHITA        PTCLDY    60  58  92 CALM      30.03R
OMAHA          CLEAR     55  53  93 CALM      30.00R
LINCOLN        CLEAR     51  47  86 N3        30.02R
FALLS CITY     CLEAR     57  52  83 W7        30.00R
LAMONI         CLEAR     59  55  87 W9        29.97R
DES MOINES     MOCLDY    59  55  87 W3        29.94R

$$



USA.gov is the U.S. government's official web portal to all federal, state and local government web resources and services.